Torna al catalogo

DELTA 2 DEB

LostHEO
NORAD 29534·DEBRIS·🇺🇸 United States

Lanciato Sep 26, 2005 da Cape Canaveral Space Force Station

Loading…

Prossimi Passaggi (prossime 24 ore)

TLE

ObsoletoSource: Space-Track

Epoca: Jul 9, 2026, 11:00 UTC

1 29534U 05038D   26190.45845965  .00012039  00000-0  12659-2 0  9993
2 29534  39.5267 313.2541 5732989 139.4835 281.7781  4.47928587310699

Traccia DELTA 2 DEB in tempo reale con AllMySat

Download on the App Store